Glencoe, MN

2:32 PM CDT on September 20, 2017 (GMT -0500)
Glencoe Municipal

Weather History for KGYL - March, 2014

Change the Weather History Date:

Monday, March 24, 2014

  Actual Average (KHCD) Record (KHCD)
Temperature  
Mean Temperature 26 °F -  
Max Temperature 32 °F 42 °F 93 °F (2005)
Min Temperature 20 °F 24 °F -12 °F (1965)
Degree Days  
Heating Degree Days 39    
Moisture  
Dew Point 15 °F    
Average Humidity 63    
Maximum Humidity 79    
Minimum Humidity 38    
Precipitation  
Precipitation 0.00 in - - ()
Sea Level Pressure  
Sea Level Pressure 30.21 in    
Wind  
Wind Speed 6 mph (West)    
Max Wind Speed 25 mph    
Max Gust Speed 31 mph    
Visibility 9 miles    
Events Snow    
Averages and records for this station are not official NWS values.
T = Trace of Precipitation, MM = Missing Value Source: NWS Daily Summary

Daily Weather History Graph

Daily Weather History Graph

Search for Another Location

Airport or City:

Trip Planner

Search our weather history database for the weather conditions in past years. The results will help you decide how hot, cold, wet, or windy it might be!

Date:

Astronomy

Mar. 24, 2014 Rise Set
Actual Time 7:11 AM CDT 7:33 PM CDT
Civil Twilight 6:42 AM CDT 8:03 PM CDT
Nautical Twilight 6:08 AM CDT 8:37 PM CDT
Astronomical Twilight 5:32 AM CDT 9:13 PM CDT
Moon 2:56 AM CDT (3/24) 12:46 PM CDT (3/24)
Length of Visible Light 13h 20m
Length of Day
12h 21m
Last Quarter, 43% of the Moon is Illuminated
Mar 24
Last Quarter
Mar 30
New
Apr 7
First Quarter
Apr 15
Full
Apr 22
Last Quarter

Hourly Weather History & Observations

Time (CDT) Temp. Windchill Dew Point Humidity Pressure Visibility Wind Dir Wind Speed Gust Speed Precip Events Conditions
12:12 AM 22.6 °F - 10.8 °F 60% 30.34 in 10.0 mi Calm Calm - N/A   Mostly Cloudy
12:33 AM 22.6 °F - 10.2 °F 59% 30.34 in 10.0 mi Calm Calm - N/A   Overcast
12:52 AM 22.8 °F - 10.8 °F 60% 30.34 in 10.0 mi Calm Calm - N/A   Overcast
1:13 AM 23.0 °F - 10.6 °F 59% 30.34 in 10.0 mi Calm Calm - N/A   Overcast
1:32 AM 22.8 °F - 10.9 °F 60% 30.34 in 10.0 mi Calm Calm - N/A   Overcast
1:53 AM 22.6 °F - 12.2 °F 64% 30.33 in 10.0 mi Calm Calm - N/A   Overcast
2:12 AM 23.4 °F - 11.3 °F 60% 30.33 in 10.0 mi Calm Calm - N/A   Overcast
2:33 AM 23.4 °F 18.9 °F 11.8 °F 61% 30.32 in 10.0 mi East 3.5 mph - N/A   Overcast
2:52 AM 23.2 °F 18.7 °F 11.8 °F 62% 30.32 in 10.0 mi ESE 3.5 mph - N/A   Overcast
3:13 AM 23.0 °F 18.4 °F 10.8 °F 60% 30.31 in 10.0 mi SE 3.5 mph - N/A   Overcast
3:32 AM 23.0 °F 18.4 °F 11.5 °F 61% 30.30 in 10.0 mi SE 3.5 mph - N/A   Overcast
3:53 AM 23.0 °F 18.4 °F 12.7 °F 65% 30.29 in 10.0 mi SSE 3.5 mph - N/A   Overcast
4:13 AM 22.8 °F 16.7 °F 13.1 °F 66% 30.28 in 10.0 mi SSE 4.6 mph - N/A   Overcast
4:32 AM 22.5 °F 16.3 °F 12.9 °F 67% 30.27 in 10.0 mi South 4.6 mph - N/A   Overcast
4:53 AM 22.5 °F 17.8 °F 12.0 °F 64% 30.26 in 10.0 mi South 3.5 mph - N/A   Overcast
5:13 AM 22.1 °F 15.9 °F 12.0 °F 65% 30.26 in 10.0 mi South 4.6 mph - N/A   Scattered Clouds
5:33 AM 21.9 °F 17.2 °F 12.2 °F 66% 30.26 in 10.0 mi South 3.5 mph - N/A   Mostly Cloudy
5:52 AM 22.1 °F - 13.5 °F 69% 30.26 in 10.0 mi Calm Calm - N/A   Overcast
6:12 AM 22.1 °F - 14.0 °F 71% 30.26 in 10.0 mi Calm Calm - N/A   Overcast
6:33 AM 21.0 °F - 14.4 °F 75% 30.26 in 10.0 mi Calm Calm - N/A   Overcast
6:52 AM 21.4 °F - 14.7 °F 75% 30.27 in 10.0 mi Calm Calm - N/A   Overcast
7:13 AM 21.6 °F - 14.7 °F 75% 30.27 in 10.0 mi Calm Calm - N/A   Overcast
7:33 AM 20.8 °F - 14.5 °F 77% 30.27 in 10.0 mi Calm Calm - N/A   Overcast
7:53 AM 21.6 °F - 15.3 °F 77% 30.26 in 10.0 mi Calm Calm - N/A   Mostly Cloudy
8:13 AM 22.1 °F - 16.5 °F 79% 30.25 in 10.0 mi Calm Calm - N/A   Mostly Cloudy
8:33 AM 23.4 °F - 17.2 °F 77% 30.25 in 5.0 mi Calm Calm - N/A Snow Light Snow
8:53 AM 24.8 °F - 18.5 °F 77% 30.24 in 10.0 mi Calm Calm - N/A   Mostly Cloudy
9:13 AM 25.3 °F 19.7 °F 19.8 °F 79% 30.24 in 10.0 mi SSW 4.6 mph - N/A   Mostly Cloudy
9:33 AM 27.1 °F 19.7 °F 21.2 °F 78% 30.24 in 10.0 mi SW 6.9 mph - N/A   Mostly Cloudy
9:53 AM 27.9 °F 19.1 °F 21.9 °F 78% 30.24 in 10.0 mi SW 9.2 mph - N/A   Overcast
10:13 AM 29.1 °F 21.3 °F 22.6 °F 77% 30.23 in 10.0 mi SW 8.1 mph - N/A   Overcast
10:32 AM 30.0 °F 22.4 °F 23.0 °F 75% 30.22 in 5.0 mi WSW 8.1 mph 16.1 mph N/A Snow Light Snow
10:53 AM 30.7 °F 22.6 °F 23.7 °F 75% 30.22 in 7.0 mi WSW 9.2 mph - N/A Snow Light Snow
11:13 AM 31.6 °F 24.4 °F 23.5 °F 72% 30.21 in 7.0 mi WSW 8.1 mph 16.1 mph N/A Snow Light Snow
11:33 AM 31.5 °F 22.3 °F 22.6 °F 70% 30.20 in 10.0 mi WSW 11.5 mph 20.7 mph N/A   Overcast
11:52 AM 30.6 °F 20.2 °F 24.6 °F 79% 30.20 in 1.5 mi West 13.8 mph - N/A Snow Light Snow
12:13 PM 30.9 °F 20.7 °F 23.5 °F 74% 30.20 in 5.0 mi West 13.8 mph - N/A Snow Light Snow
12:33 PM 31.8 °F 20.6 °F 21.7 °F 66% 30.20 in 10.0 mi WNW 17.3 mph - N/A   Overcast
12:52 PM 32.0 °F 22.1 °F 19.0 °F 59% 30.19 in 10.0 mi West 13.8 mph 21.9 mph N/A   Overcast
1:13 PM 32.0 °F 20.8 °F 18.9 °F 58% 30.19 in 10.0 mi West 17.3 mph - N/A   Overcast
1:33 PM 31.8 °F 21.0 °F 19.4 °F 60% 30.18 in 10.0 mi West 16.1 mph - N/A   Overcast
1:53 PM 30.2 °F 21.3 °F 21.4 °F 70% 30.18 in 5.0 mi WNW 10.4 mph - N/A Snow Light Snow
2:13 PM 31.6 °F 21.6 °F 18.7 °F 59% 30.17 in 10.0 mi WNW 13.8 mph 20.7 mph N/A   Overcast
2:33 PM 31.6 °F 22.6 °F 16.7 °F 54% 30.15 in 10.0 mi West 11.5 mph 18.4 mph N/A   Overcast
2:53 PM 32.0 °F 23.0 °F 15.4 °F 51% 30.15 in 10.0 mi NW 11.5 mph 18.4 mph N/A   Overcast
3:13 PM 31.6 °F 20.7 °F 16.5 °F 54% 30.15 in 10.0 mi WNW 16.1 mph 20.7 mph N/A   Overcast
3:32 PM 31.3 °F 21.1 °F 17.6 °F 57% 30.14 in 7.0 mi WNW 13.8 mph 20.7 mph N/A Snow Light Snow
3:53 PM 30.9 °F 17.8 °F 18.3 °F 60% 30.14 in 7.0 mi West 23.0 mph 26.5 mph N/A Snow Light Snow
4:13 PM 31.3 °F 20.3 °F 17.8 °F 57% 30.13 in 10.0 mi WNW 16.1 mph 21.9 mph N/A   Overcast
4:32 PM 31.6 °F 19.3 °F 15.4 °F 51% 30.13 in 10.0 mi WNW 20.7 mph 26.5 mph N/A   Overcast
4:53 PM 30.7 °F 17.8 °F 11.5 °F 45% 30.13 in 10.0 mi WNW 21.9 mph 27.6 mph N/A   Mostly Cloudy
5:13 PM 30.9 °F 17.2 °F 8.1 °F 38% 30.13 in 10.0 mi WNW 25.3 mph 31.1 mph N/A   Scattered Clouds
5:33 PM 30.0 °F 16.9 °F 8.4 °F 40% 30.14 in 10.0 mi NW 21.9 mph 31.1 mph N/A   Clear
5:52 PM 29.1 °F 17.1 °F 9.5 °F 44% 30.14 in 10.0 mi NW 17.3 mph 26.5 mph N/A   Scattered Clouds
6:13 PM 29.1 °F 17.9 °F 9.5 °F 44% 30.14 in 10.0 mi WNW 15.0 mph 23.0 mph N/A   Scattered Clouds
6:33 PM 29.3 °F 17.7 °F 10.0 °F 45% 30.14 in 10.0 mi NW 16.1 mph 25.3 mph N/A   Mostly Cloudy
6:53 PM 29.1 °F 18.4 °F 10.8 °F 46% 30.13 in 10.0 mi WNW 13.8 mph - N/A   Mostly Cloudy
7:13 PM 28.2 °F 17.7 °F 11.1 °F 49% 30.13 in 10.0 mi NW 12.7 mph 23.0 mph N/A   Mostly Cloudy
7:33 PM 27.9 °F 16.8 °F 11.7 °F 51% 30.13 in 10.0 mi NW 13.8 mph - N/A   Scattered Clouds
7:52 PM 27.7 °F 18.2 °F 12.6 °F 53% 30.12 in 10.0 mi WNW 10.4 mph - N/A   Clear
8:11 PM 27.5 °F 16.3 °F 12.2 °F 53% 30.12 in 10.0 mi WNW 13.8 mph - N/A   Clear
8:32 PM 27.5 °F 18.0 °F 11.3 °F 51% 30.12 in 10.0 mi West 10.4 mph - N/A   Clear
8:52 PM 26.8 °F 17.7 °F 12.4 °F 55% 30.12 in 10.0 mi West 9.2 mph - N/A   Clear
9:10 PM 26.6 °F 18.2 °F 12.6 °F 55% 30.12 in 10.0 mi West 8.1 mph - N/A   Clear
9:32 PM 26.4 °F 18.9 °F 12.2 °F 55% 30.12 in 10.0 mi West 6.9 mph - N/A   Clear
9:53 PM 25.7 °F 17.1 °F 13.3 °F 59% 30.12 in 10.0 mi West 8.1 mph - N/A   Clear
10:12 PM 25.7 °F 15.7 °F 13.3 °F 59% 30.12 in 10.0 mi West 10.4 mph - N/A   Scattered Clouds
10:32 PM 25.7 °F 15.1 °F 12.9 °F 58% 30.12 in 10.0 mi WNW 11.5 mph - N/A   Mostly Cloudy
10:53 PM 25.7 °F 13.1 °F 16.7 °F 69% 30.13 in 4.0 mi WNW 16.1 mph 27.6 mph N/A Snow Light Snow
11:11 PM 24.8 °F 13.4 °F 18.0 °F 75% 30.12 in 7.0 mi WNW 12.7 mph - N/A Snow Light Snow
11:33 PM 24.6 °F 12.2 °F 17.6 °F 75% 30.12 in 10.0 mi West 15.0 mph 20.7 mph N/A   Scattered Clouds
11:53 PM 24.8 °F 12.9 °F 17.2 °F 73% 30.12 in 10.0 mi WNW 13.8 mph - N/A   Mostly Cloudy